Location: Montamat
(43.4852°N, 0.8444°E)
Time: 08:22:04
(UTC+00:00)

CZ-4 R/B - Pass Details

Date: 14 May 2026
Orbit: 491 x 535 km, 97.5° (Epoch: 5 June)

Event Time Altitude Azimuth Distance (km) Brightness Sun altitude
Exits shadow 19:53:46 - 168° (SSE) 2,439 4.2 -7.1°
Reaches altitude 10° 19:55:33 10° 169° (S) 1,679 3.4 -7.4°
Maximum altitude 19:59:09 82° 257° (WSW) 502 1.2 -7.9°
Drops below altitude 10° 20:02:48 10° 346° (NNW) 1,695 4.6 -8.5°
Sets 20:04:54 0° 347° (NNW) 2,585 5.6 -8.8°
